{"data":{"norad_id":81036,"epoch":"2026-05-23T15:09:26.853120Z","epoch_age_seconds":200062,"freshness":"STALE","line1":"1 81036U          26143.63156080 -.00000740  00000+0 -16716-2 0  9998","line2":"2 81036  66.1059 252.7698 2574735 126.1590 260.5928  9.33036877 36820","mean_motion":9.33036877,"eccentricity":0.2574735,"inclination_deg":66.1059,"raan_deg":252.7698,"arg_perigee_deg":126.159,"mean_anomaly_deg":260.5928,"bstar":-0.0016716,"rev_number":3682,"period_min":154.33473590348,"perigee_km":698.84231874075,"apogee_km":5606.7739134348,"semimajor_km":9530.9451160878,"source":"CELESTRAK","updated_at":"2026-05-25T13:38:09.443000Z"}}